RYR18PM LFRS-GCRR

Flight info

Callsign RYR18PM
Flight time 3h 11m
Altitude 35000
Route ERIGA DCT FUJTI DCT BAKUP/N0464F370 DCT BATAX DCT OLGAR DCT TAKAV DCT VEDOD UN857 TERTO
Aircraft B38M/M-SDE1FGHILORVWXY/HB1

Departure

Time 2026-05-04 09:28
Airport Nantes Atlantique Airport (LFRS)

Arrival

Time 2026-05-04 12:39
Airport César Manrique-Lanzarote Airport (GCRR)
Time Latitude Longitude Altitude Speed Heading
2026-05-04 09:08 47.15644 -1.60107 100 ft 0 kts 46°
2026-05-04 09:20 47.15636 -1.60119 100 ft 3 kts 43°
2026-05-04 09:20 47.15619 -1.60140 98 ft 3 kts 33°
2026-05-04 09:20 47.15600 -1.60154 100 ft 3 kts 18°
2026-05-04 09:20 47.15580 -1.60159 101 ft 3 kts 346°
2026-05-04 09:21 47.15566 -1.60146 101 ft 2 kts 297°
2026-05-04 09:21 47.15565 -1.60144 101 ft 0 kts 297°
2026-05-04 09:23 47.15566 -1.60145 101 ft 1 kts 297°
2026-05-04 09:23 47.15573 -1.60167 100 ft 4 kts 297°
2026-05-04 09:25 47.15128 -1.60950 101 ft 22 kts 207°
2026-05-04 09:25 47.14977 -1.61067 101 ft 27 kts 208°
2026-05-04 09:26 47.14805 -1.61196 98 ft 30 kts 207°
2026-05-04 09:26 47.14613 -1.61339 95 ft 33 kts 207°
2026-05-04 09:26 47.14402 -1.61515 93 ft 37 kts 211°
2026-05-04 09:26 47.14223 -1.61642 85 ft 20 kts 206°
2026-05-04 09:27 47.14144 -1.61826 86 ft 19 kts 263°
2026-05-04 09:27 47.14217 -1.61907 85 ft 15 kts 18°
2026-05-04 09:27 47.14452 -1.61732 91 ft 75 kts 27°
2026-05-04 09:27 47.15145 -1.61203 98 ft 147 kts 27°
2026-05-04 09:28 47.16177 -1.60386 483 ft 178 kts 28°
2026-05-04 09:28 47.17283 -1.59589 1670 ft 171 kts 13°
2026-05-04 09:28 47.18503 -1.59607 2510 ft 190 kts 341°
2026-05-04 09:28 47.19645 -1.60783 3031 ft 218 kts 306°
2026-05-04 09:29 47.20205 -1.62981 3751 ft 237 kts 276°
2026-05-04 09:29 47.20488 -1.65378 4835 ft 246 kts 287°
2026-05-04 09:29 47.21084 -1.67841 5553 ft 264 kts 289°
2026-05-04 09:29 47.21701 -1.70463 6455 ft 274 kts 286°
2026-05-04 09:30 47.22264 -1.73152 7461 ft 277 kts 278°
2026-05-04 09:30 47.22207 -1.75917 8609 ft 269 kts 253°
2026-05-04 09:30 47.21508 -1.78508 9473 ft 279 kts 243°
2026-05-04 09:30 47.20492 -1.80958 10303 ft 282 kts 227°
2026-05-04 09:31 47.19113 -1.83107 10751 ft 298 kts 225°
2026-05-04 09:31 47.17645 -1.85413 11052 ft 319 kts 225°
2026-05-04 09:31 47.16098 -1.87880 11351 ft 337 kts 226°
2026-05-04 09:31 47.14491 -1.90468 11807 ft 348 kts 226°
2026-05-04 09:32 47.12863 -1.93099 12563 ft 349 kts 226°
2026-05-04 09:32 47.11223 -1.95753 13219 ft 353 kts 226°
2026-05-04 09:34 46.99985 -2.13896 17241 ft 367 kts 226°
2026-05-04 09:34 46.98260 -2.16670 17787 ft 369 kts 226°
2026-05-04 09:34 46.96524 -2.19459 18302 ft 372 kts 225°
2026-05-04 09:34 46.94776 -2.22264 18749 ft 374 kts 225°
2026-05-04 09:35 46.93022 -2.25077 19184 ft 375 kts 225°
2026-05-04 09:35 46.91256 -2.27905 19628 ft 377 kts 225°
2026-05-04 09:35 46.89485 -2.30737 20057 ft 378 kts 225°
2026-05-04 09:35 46.87703 -2.33585 20481 ft 380 kts 225°
2026-05-04 09:37 46.72193 -2.48415 23412 ft 387 kts 209°
2026-05-04 09:37 46.69877 -2.50439 23766 ft 389 kts 209°
2026-05-04 09:38 46.67553 -2.52468 24090 ft 390 kts 209°
2026-05-04 09:38 46.65219 -2.54504 24417 ft 392 kts 209°
2026-05-04 09:38 46.62874 -2.56547 24746 ft 394 kts 208°
2026-05-04 09:38 46.60516 -2.58600 25067 ft 395 kts 208°
2026-05-04 09:39 46.58151 -2.60656 25398 ft 397 kts 208°
2026-05-04 09:39 46.55773 -2.62721 25724 ft 399 kts 208°
2026-05-04 09:39 46.53386 -2.64793 26035 ft 401 kts 208°
2026-05-04 09:39 46.50986 -2.66874 26325 ft 403 kts 208°
2026-05-04 09:40 46.48573 -2.68963 26624 ft 405 kts 208°
2026-05-04 09:40 46.46151 -2.71058 26927 ft 406 kts 208°
2026-05-04 09:40 46.43718 -2.73160 27221 ft 408 kts 208°
2026-05-04 09:40 46.41275 -2.75269 27508 ft 410 kts 208°
2026-05-04 09:41 46.38854 -2.77357 27787 ft 411 kts 208°
2026-05-04 09:42 46.21361 -2.92479 29498 ft 425 kts 209°
2026-05-04 09:43 46.18829 -2.94684 29812 ft 425 kts 209°
2026-05-04 09:43 46.16301 -2.96883 30144 ft 424 kts 209°
2026-05-04 09:43 46.13777 -2.99077 30391 ft 424 kts 209°
2026-05-04 09:43 46.11250 -3.01271 30632 ft 424 kts 209°
2026-05-04 09:44 46.08721 -3.03463 30884 ft 424 kts 209°
2026-05-04 09:44 46.06195 -3.05651 31119 ft 424 kts 209°
2026-05-04 09:44 46.03662 -3.07842 31359 ft 424 kts 209°
2026-05-04 09:46 45.85883 -3.23156 32854 ft 428 kts 210°
2026-05-04 09:46 45.83327 -3.25348 33065 ft 428 kts 210°
2026-05-04 09:46 45.80767 -3.27541 33260 ft 429 kts 210°
2026-05-04 09:47 45.78210 -3.29729 33473 ft 429 kts 210°
2026-05-04 09:47 45.75645 -3.31922 33658 ft 429 kts 210°
2026-05-04 09:49 45.57618 -3.47266 34749 ft 432 kts 210°
2026-05-04 09:49 45.55030 -3.49459 34888 ft 433 kts 210°
2026-05-04 09:49 45.52444 -3.51649 34997 ft 433 kts 210°
2026-05-04 09:51 45.36840 -3.64809 35017 ft 436 kts 210°
2026-05-04 09:51 45.31623 -3.69190 35011 ft 435 kts 210°
2026-05-04 09:52 45.26421 -3.73548 35012 ft 433 kts 210°
2026-05-04 09:52 45.21224 -3.77893 35015 ft 434 kts 210°
2026-05-04 09:53 45.16024 -3.82232 35018 ft 434 kts 210°
2026-05-04 09:53 45.10818 -3.86567 35020 ft 434 kts 210°
2026-05-04 09:54 45.05605 -3.90896 35023 ft 434 kts 210°
2026-05-04 09:54 45.00392 -3.95218 35018 ft 434 kts 210°
2026-05-04 09:55 44.95179 -3.99531 35017 ft 434 kts 210°
2026-05-04 09:55 44.89964 -4.03836 35018 ft 433 kts 210°
2026-05-04 09:56 44.84763 -4.08120 35017 ft 433 kts 210°
2026-05-04 09:56 44.79560 -4.12396 35018 ft 433 kts 210°
2026-05-04 09:57 44.74357 -4.16664 35018 ft 433 kts 210°
2026-05-04 09:57 44.69151 -4.20925 35018 ft 433 kts 210°
2026-05-04 09:58 44.63942 -4.25180 35018 ft 433 kts 210°
2026-05-04 09:58 44.58732 -4.29427 35018 ft 433 kts 210°
2026-05-04 10:00 44.37965 -4.46449 35031 ft 432 kts 211°
2026-05-04 10:04 44.01861 -4.76850 35040 ft 435 kts 211°
2026-05-04 10:04 43.96677 -4.81178 35042 ft 435 kts 211°
2026-05-04 10:05 43.91493 -4.85498 35034 ft 435 kts 211°
2026-05-04 10:05 43.86310 -4.89808 35044 ft 434 kts 211°
2026-05-04 10:06 43.81125 -4.94111 35050 ft 434 kts 211°
2026-05-04 10:06 43.75932 -4.98412 35057 ft 436 kts 211°
2026-05-04 10:08 43.57698 -5.13443 35050 ft 436 kts 212°
2026-05-04 10:08 43.52488 -5.17718 35050 ft 436 kts 212°
2026-05-04 10:09 43.47274 -5.21988 35049 ft 436 kts 212°
2026-05-04 10:09 43.42062 -5.26248 35056 ft 436 kts 212°
2026-05-04 10:10 43.36844 -5.30503 35060 ft 436 kts 211°
2026-05-04 10:10 43.31627 -5.34750 35047 ft 436 kts 212°
2026-05-04 10:11 43.26400 -5.38995 35031 ft 437 kts 212°
2026-05-04 10:11 43.21169 -5.43236 35043 ft 437 kts 212°
2026-05-04 10:12 43.15937 -5.47469 35045 ft 437 kts 212°
2026-05-04 10:12 43.10705 -5.51694 35041 ft 437 kts 212°
2026-05-04 10:13 43.05469 -5.55913 35046 ft 436 kts 212°
2026-05-04 10:13 43.00231 -5.60125 35033 ft 437 kts 212°
2026-05-04 10:14 42.94993 -5.64329 35025 ft 437 kts 212°
2026-05-04 10:16 42.74027 -5.81073 34999 ft 437 kts 212°
2026-05-04 10:16 42.68816 -5.85213 34998 ft 437 kts 212°
2026-05-04 10:17 42.63564 -5.89379 34996 ft 437 kts 212°
2026-05-04 10:19 42.42553 -6.05961 34995 ft 437 kts 212°
2026-05-04 10:19 42.37292 -6.10093 35012 ft 437 kts 212°
2026-05-04 10:20 42.32030 -6.14216 35004 ft 437 kts 212°
2026-05-04 10:20 42.27621 -6.17666 35005 ft 437 kts 212°
2026-05-04 10:21 42.22391 -6.21750 34985 ft 437 kts 212°
2026-05-04 10:21 42.17120 -6.25859 35002 ft 438 kts 212°
2026-05-04 10:22 42.09207 -6.32012 35005 ft 438 kts 212°
2026-05-04 10:23 42.03930 -6.36105 35003 ft 438 kts 212°
2026-05-04 10:25 41.82788 -6.52430 35012 ft 439 kts 213°
2026-05-04 10:25 41.77486 -6.56505 35006 ft 439 kts 213°
2026-05-04 10:26 41.72188 -6.60570 35010 ft 439 kts 213°
2026-05-04 10:26 41.66645 -6.64034 35034 ft 442 kts 206°
2026-05-04 10:27 41.60952 -6.67137 35037 ft 442 kts 206°
2026-05-04 10:27 41.55254 -6.70226 35032 ft 442 kts 206°
2026-05-04 10:28 41.49548 -6.73311 35044 ft 442 kts 206°
2026-05-04 10:28 41.43848 -6.76387 35036 ft 442 kts 206°
2026-05-04 10:29 41.38143 -6.79460 35038 ft 442 kts 206°
2026-05-04 10:29 41.32438 -6.82527 35044 ft 442 kts 206°
2026-05-04 10:30 41.26734 -6.85588 35033 ft 442 kts 206°
2026-05-04 10:30 41.21060 -6.88627 35044 ft 443 kts 206°
2026-05-04 10:31 41.15349 -6.91680 35048 ft 443 kts 206°
2026-05-04 10:32 40.95338 -7.02333 35051 ft 443 kts 206°
2026-05-04 10:33 40.89615 -7.05366 35033 ft 442 kts 206°
2026-05-04 10:33 40.83909 -7.08385 35052 ft 442 kts 206°
2026-05-04 10:34 40.78204 -7.11398 35049 ft 442 kts 206°
2026-05-04 10:34 40.72498 -7.14407 35054 ft 442 kts 206°
2026-05-04 10:35 40.66791 -7.17409 35039 ft 441 kts 207°
2026-05-04 10:35 40.61104 -7.20396 35049 ft 440 kts 207°
2026-05-04 10:36 40.55416 -7.23378 35050 ft 440 kts 207°
2026-05-04 10:36 40.49753 -7.26341 35060 ft 441 kts 207°
2026-05-04 10:37 40.44050 -7.29321 35052 ft 441 kts 207°
2026-05-04 10:37 40.38350 -7.32292 35056 ft 441 kts 207°
2026-05-04 10:39 40.18388 -7.42657 35049 ft 440 kts 207°
2026-05-04 10:40 40.12695 -7.45601 35061 ft 440 kts 207°
2026-05-04 10:40 40.07004 -7.48539 35060 ft 440 kts 207°
2026-05-04 10:41 40.01303 -7.51476 35063 ft 440 kts 207°
2026-05-04 10:41 39.95621 -7.54398 35057 ft 438 kts 207°
2026-05-04 10:42 39.89946 -7.57312 35062 ft 438 kts 207°
2026-05-04 10:42 39.84272 -7.60220 35063 ft 438 kts 207°
2026-05-04 10:43 39.78586 -7.63129 35065 ft 439 kts 207°
2026-05-04 10:44 39.58820 -7.73201 35381 ft 437 kts 207°
2026-05-04 10:45 39.55988 -7.74639 35565 ft 437 kts 207°
2026-05-04 10:45 39.53160 -7.76073 35713 ft 436 kts 207°
2026-05-04 10:45 39.50338 -7.77503 35953 ft 434 kts 207°
2026-05-04 10:45 39.47528 -7.78926 36111 ft 434 kts 207°
2026-05-04 10:46 39.44713 -7.80351 36278 ft 434 kts 207°
2026-05-04 10:46 39.41904 -7.81771 36421 ft 434 kts 207°
2026-05-04 10:46 39.39092 -7.83192 36574 ft 434 kts 207°
2026-05-04 10:46 39.36279 -7.84612 36706 ft 434 kts 207°
2026-05-04 10:47 39.33467 -7.86030 36841 ft 434 kts 207°
2026-05-04 10:47 39.30656 -7.87447 36963 ft 433 kts 207°
2026-05-04 10:47 39.27856 -7.88857 37088 ft 432 kts 207°
2026-05-04 10:49 39.05304 -7.99671 37072 ft 432 kts 206°
2026-05-04 10:50 38.99649 -8.02302 37093 ft 432 kts 206°
2026-05-04 10:52 38.77059 -8.12773 37107 ft 432 kts 206°
2026-05-04 10:52 38.71406 -8.15382 37104 ft 432 kts 206°
2026-05-04 10:54 38.48857 -8.25746 37102 ft 431 kts 206°
2026-05-04 10:56 38.26305 -8.36044 37112 ft 431 kts 206°
2026-05-04 10:57 38.20653 -8.38613 37107 ft 431 kts 206°
2026-05-04 10:57 38.15003 -8.41178 37114 ft 431 kts 206°
2026-05-04 10:58 38.09351 -8.43739 37116 ft 431 kts 206°
2026-05-04 10:58 38.03700 -8.46296 37116 ft 431 kts 206°
2026-05-04 10:59 37.98045 -8.48850 37114 ft 431 kts 206°
2026-05-04 10:59 37.92389 -8.51401 37119 ft 431 kts 206°
2026-05-04 11:00 37.86735 -8.53947 37094 ft 431 kts 206°
2026-05-04 11:02 37.64192 -8.64055 37124 ft 430 kts 206°
2026-05-04 11:05 37.22080 -8.82765 37137 ft 428 kts 206°
2026-05-04 11:06 37.16471 -8.85240 37138 ft 427 kts 206°
2026-05-04 11:06 37.10868 -8.87709 37135 ft 425 kts 206°
2026-05-04 11:10 36.72867 -9.04351 37139 ft 422 kts 206°
2026-05-04 11:12 36.50707 -9.13975 37144 ft 421 kts 207°
2026-05-04 11:12 36.45167 -9.16371 37146 ft 421 kts 207°
2026-05-04 11:13 36.39630 -9.18763 37144 ft 421 kts 207°
2026-05-04 11:13 36.34116 -9.21142 37150 ft 418 kts 207°
2026-05-04 11:14 36.28621 -9.23508 37148 ft 418 kts 207°
2026-05-04 11:16 36.06682 -9.32925 37152 ft 415 kts 207°
2026-05-04 11:16 36.01228 -9.35258 37155 ft 415 kts 207°
2026-05-04 11:17 35.95841 -9.37731 37149 ft 408 kts 213°
2026-05-04 11:19 35.75366 -9.49731 37153 ft 409 kts 213°
2026-05-04 11:19 35.70198 -9.52759 37152 ft 409 kts 213°
2026-05-04 11:20 35.65103 -9.55741 37151 ft 408 kts 213°
2026-05-04 11:20 35.59972 -9.58740 37151 ft 408 kts 213°
2026-05-04 11:22 35.39432 -9.70700 37151 ft 408 kts 213°
2026-05-04 11:23 35.34299 -9.73678 37132 ft 408 kts 213°
2026-05-04 11:25 35.16349 -9.84061 37143 ft 408 kts 213°
2026-05-04 11:25 35.11209 -9.87024 37152 ft 409 kts 213°
2026-05-04 11:27 34.88128 -10.00281 37158 ft 407 kts 213°
2026-05-04 11:28 34.83000 -10.03215 37111 ft 407 kts 212°
2026-05-04 11:28 34.77877 -10.06143 37163 ft 406 kts 212°
2026-05-04 11:29 34.72763 -10.09060 37152 ft 406 kts 212°
2026-05-04 11:29 34.67648 -10.11975 37149 ft 406 kts 212°
2026-05-04 11:33 34.31813 -10.32283 37152 ft 407 kts 212°
2026-05-04 11:33 34.26677 -10.35178 37139 ft 408 kts 212°
2026-05-04 11:34 34.21532 -10.38074 37150 ft 408 kts 212°
2026-05-04 11:34 34.16383 -10.40968 37149 ft 408 kts 212°
2026-05-04 11:35 34.11236 -10.43857 37152 ft 408 kts 212°
2026-05-04 11:35 34.06090 -10.46742 37149 ft 408 kts 212°
2026-05-04 11:36 34.00942 -10.49624 37113 ft 409 kts 211°
2026-05-04 11:36 33.95772 -10.52515 37153 ft 410 kts 211°
2026-05-04 11:37 33.90596 -10.55405 37154 ft 410 kts 211°
2026-05-04 11:37 33.85421 -10.58290 37144 ft 410 kts 211°
2026-05-04 11:38 33.80231 -10.61180 37154 ft 411 kts 211°
2026-05-04 11:38 33.75039 -10.64067 37111 ft 411 kts 211°
2026-05-04 11:39 33.69837 -10.66956 37144 ft 412 kts 211°
2026-05-04 11:41 33.51613 -10.77047 37145 ft 412 kts 211°
2026-05-04 11:41 33.46407 -10.79920 37115 ft 412 kts 211°
2026-05-04 11:42 33.41195 -10.82794 37142 ft 412 kts 211°
2026-05-04 11:42 33.35984 -10.85663 37140 ft 412 kts 211°
2026-05-04 11:43 33.30772 -10.88528 37139 ft 412 kts 211°
2026-05-04 11:43 33.25560 -10.91390 37137 ft 412 kts 211°
2026-05-04 11:44 33.20346 -10.94250 37133 ft 412 kts 211°
2026-05-04 11:44 33.15126 -10.97108 37140 ft 414 kts 210°
2026-05-04 11:45 33.09927 -10.99952 37139 ft 413 kts 210°
2026-05-04 11:45 33.04662 -11.02827 37138 ft 413 kts 210°
2026-05-04 11:46 32.99431 -11.05681 37138 ft 413 kts 210°
2026-05-04 11:46 32.94199 -11.08532 37135 ft 413 kts 210°
2026-05-04 11:47 32.88970 -11.11376 37135 ft 413 kts 210°
2026-05-04 11:47 32.83733 -11.14222 37134 ft 414 kts 210°
2026-05-04 11:48 32.78498 -11.17063 37130 ft 414 kts 210°
2026-05-04 11:48 32.73296 -11.19882 37132 ft 414 kts 210°
2026-05-04 11:49 32.68059 -11.22717 37131 ft 414 kts 210°
2026-05-04 11:49 32.62820 -11.25549 37116 ft 414 kts 210°
2026-05-04 11:50 32.57574 -11.28381 37128 ft 414 kts 210°
2026-05-04 11:50 32.52323 -11.31212 37128 ft 414 kts 210°
2026-05-04 11:51 32.47070 -11.34040 37129 ft 415 kts 210°
2026-05-04 11:51 32.41807 -11.36871 37129 ft 415 kts 210°
2026-05-04 11:52 32.36546 -11.39696 37101 ft 415 kts 210°
2026-05-04 11:52 32.31275 -11.42524 37126 ft 416 kts 210°
2026-05-04 11:53 32.26001 -11.45349 37125 ft 416 kts 210°
2026-05-04 11:53 32.20725 -11.48171 37124 ft 416 kts 210°
2026-05-04 11:55 32.00486 -11.58966 37116 ft 415 kts 211°
2026-05-04 11:56 31.95218 -11.61768 37124 ft 415 kts 211°
2026-05-04 11:56 31.89949 -11.64566 37115 ft 415 kts 211°
2026-05-04 11:57 31.84683 -11.67359 37119 ft 415 kts 211°
2026-05-04 11:57 31.79444 -11.70134 37093 ft 415 kts 211°
2026-05-04 11:58 31.74187 -11.72915 37115 ft 414 kts 211°
2026-05-04 11:58 31.68932 -11.75692 37121 ft 414 kts 211°
2026-05-04 11:59 31.63677 -11.78465 37120 ft 414 kts 211°
2026-05-04 11:59 31.58422 -11.81235 37121 ft 414 kts 211°
2026-05-04 12:00 31.53163 -11.84004 37121 ft 414 kts 211°
2026-05-04 12:00 31.47917 -11.86762 37112 ft 413 kts 211°
2026-05-04 12:01 31.42674 -11.89515 37118 ft 413 kts 211°
2026-05-04 12:02 31.24325 -11.99124 37117 ft 413 kts 211°
2026-05-04 12:03 31.19118 -12.01844 37115 ft 412 kts 212°
2026-05-04 12:03 31.13886 -12.04573 37130 ft 412 kts 212°
2026-05-04 12:04 31.08661 -12.07295 37125 ft 411 kts 212°
2026-05-04 12:04 31.03443 -12.10010 37114 ft 411 kts 212°
2026-05-04 12:05 30.98222 -12.12725 37115 ft 411 kts 212°
2026-05-04 12:05 30.92999 -12.15437 37086 ft 410 kts 212°
2026-05-04 12:06 30.87791 -12.18138 37112 ft 409 kts 212°
2026-05-04 12:06 30.82588 -12.20833 37119 ft 409 kts 212°
2026-05-04 12:07 30.77385 -12.23525 37116 ft 409 kts 212°
2026-05-04 12:07 30.72177 -12.26216 37118 ft 409 kts 212°
2026-05-04 12:08 30.66971 -12.28903 37115 ft 409 kts 212°
2026-05-04 12:08 30.61774 -12.31583 37109 ft 408 kts 212°
2026-05-04 12:09 30.56584 -12.34255 37113 ft 408 kts 212°
2026-05-04 12:09 30.51399 -12.36939 37111 ft 406 kts 215°
2026-05-04 12:10 30.49110 -12.38720 37127 ft 391 kts 226°
2026-05-04 12:10 30.46923 -12.40637 37091 ft 396 kts 223°
2026-05-04 12:10 30.42492 -12.44408 37116 ft 395 kts 223°
2026-05-04 12:11 30.38072 -12.48182 37117 ft 395 kts 223°
2026-05-04 12:11 30.33653 -12.51955 37098 ft 394 kts 223°
2026-05-04 12:12 30.29238 -12.55720 37113 ft 394 kts 223°
2026-05-04 12:12 30.27034 -12.57596 36602 ft 392 kts 223°
2026-05-04 12:12 30.24802 -12.59413 36040 ft 393 kts 218°
2026-05-04 12:13 30.22383 -12.60810 35657 ft 395 kts 211°
2026-05-04 12:14 30.04683 -12.70322 33103 ft 413 kts 212°
2026-05-04 12:15 30.02072 -12.71737 32447 ft 415 kts 212°
2026-05-04 12:15 29.99452 -12.73158 31624 ft 418 kts 212°
2026-05-04 12:15 29.96808 -12.74590 30782 ft 422 kts 212°
2026-05-04 12:15 29.94138 -12.76035 30010 ft 425 kts 211°
2026-05-04 12:16 29.91459 -12.77485 29327 ft 427 kts 211°
2026-05-04 12:16 29.88766 -12.78941 28776 ft 428 kts 211°
2026-05-04 12:16 29.86079 -12.80392 28184 ft 425 kts 211°
2026-05-04 12:16 29.83411 -12.81833 27596 ft 422 kts 211°
2026-05-04 12:17 29.80765 -12.83260 27018 ft 419 kts 211°
2026-05-04 12:17 29.78136 -12.84678 26431 ft 415 kts 210°
2026-05-04 12:17 29.75529 -12.86083 25846 ft 411 kts 211°
2026-05-04 12:17 29.72954 -12.87470 25296 ft 407 kts 210°
2026-05-04 12:18 29.70401 -12.88844 24741 ft 404 kts 210°
2026-05-04 12:18 29.67864 -12.90209 24188 ft 401 kts 210°
2026-05-04 12:18 29.65343 -12.91565 23621 ft 399 kts 210°
2026-05-04 12:18 29.62835 -12.92913 22987 ft 397 kts 210°
2026-05-04 12:19 29.60345 -12.94250 22425 ft 393 kts 210°
2026-05-04 12:19 29.57879 -12.95573 21894 ft 389 kts 210°
2026-05-04 12:19 29.55435 -12.96884 21359 ft 386 kts 210°
2026-05-04 12:19 29.53006 -12.98187 20838 ft 384 kts 210°
2026-05-04 12:20 29.50597 -12.99478 20322 ft 381 kts 209°
2026-05-04 12:20 29.48203 -13.00760 19882 ft 378 kts 209°
2026-05-04 12:20 29.45838 -13.02027 19451 ft 373 kts 210°
2026-05-04 12:20 29.43492 -13.03282 18997 ft 371 kts 209°
2026-05-04 12:21 29.41160 -13.04529 18529 ft 369 kts 209°
2026-05-04 12:21 29.38831 -13.05774 17997 ft 368 kts 209°
2026-05-04 12:21 29.36516 -13.07012 17513 ft 366 kts 209°
2026-05-04 12:21 29.34214 -13.08241 17028 ft 364 kts 209°
2026-05-04 12:22 29.31926 -13.09462 16558 ft 361 kts 209°
2026-05-04 12:22 29.29653 -13.10675 16102 ft 359 kts 209°
2026-05-04 12:22 29.27396 -13.11879 15631 ft 357 kts 209°
2026-05-04 12:22 29.25149 -13.13076 15206 ft 355 kts 209°
2026-05-04 12:23 29.22912 -13.14268 14765 ft 353 kts 209°
2026-05-04 12:23 29.20692 -13.15450 14340 ft 351 kts 209°
2026-05-04 12:23 29.18479 -13.16628 13900 ft 350 kts 209°
2026-05-04 12:23 29.16275 -13.17801 13405 ft 348 kts 209°
2026-05-04 12:24 29.14086 -13.18965 12972 ft 346 kts 209°
2026-05-04 12:24 29.11945 -13.20103 12556 ft 343 kts 209°
2026-05-04 12:24 29.09763 -13.21262 12139 ft 340 kts 209°
2026-05-04 12:24 29.07629 -13.22395 11759 ft 337 kts 209°
2026-05-04 12:25 29.05550 -13.23497 11570 ft 319 kts 209°
2026-05-04 12:25 29.03599 -13.24531 11431 ft 299 kts 210°
2026-05-04 12:25 29.01795 -13.25488 11286 ft 281 kts 210°
2026-05-04 12:25 29.00054 -13.26410 11143 ft 264 kts 210°
2026-05-04 12:26 28.98440 -13.27266 11015 ft 250 kts 211°
2026-05-04 12:26 28.96873 -13.28097 10933 ft 259 kts 210°
2026-05-04 12:26 28.95205 -13.28980 10796 ft 267 kts 210°
2026-05-04 12:26 28.93502 -13.29882 10664 ft 271 kts 210°
2026-05-04 12:27 28.91790 -13.30788 10532 ft 272 kts 210°
2026-05-04 12:27 28.90078 -13.31694 10393 ft 271 kts 210°
2026-05-04 12:27 28.88360 -13.32602 10147 ft 272 kts 210°
2026-05-04 12:27 28.86640 -13.33511 9829 ft 273 kts 210°
2026-05-04 12:28 28.84925 -13.34418 9512 ft 271 kts 210°
2026-05-04 12:28 28.83218 -13.35319 9207 ft 269 kts 210°
2026-05-04 12:28 28.81527 -13.36212 8932 ft 267 kts 210°
2026-05-04 12:28 28.79853 -13.37096 8648 ft 264 kts 209°
2026-05-04 12:29 28.78191 -13.37973 8365 ft 262 kts 209°
2026-05-04 12:29 28.76542 -13.38842 8083 ft 260 kts 209°
2026-05-04 12:29 28.74915 -13.39701 7892 ft 254 kts 209°
2026-05-04 12:29 28.73337 -13.40532 7766 ft 246 kts 209°
2026-05-04 12:30 28.71811 -13.41337 7636 ft 237 kts 210°
2026-05-04 12:30 28.70511 -13.42394 7399 ft 225 kts 235°
2026-05-04 12:30 28.69832 -13.43960 7148 ft 221 kts 261°
2026-05-04 12:30 28.69830 -13.45657 6964 ft 213 kts 281°
2026-05-04 12:31 28.70161 -13.47283 6725 ft 209 kts 284°
2026-05-04 12:31 28.70525 -13.48882 6466 ft 208 kts 285°
2026-05-04 12:31 28.70909 -13.50461 6197 ft 206 kts 286°
2026-05-04 12:31 28.71303 -13.52021 5932 ft 204 kts 287°
2026-05-04 12:32 28.71700 -13.53555 5712 ft 200 kts 287°
2026-05-04 12:32 28.72490 -13.56557 5252 ft 195 kts 288°
2026-05-04 12:32 28.72879 -13.58024 5010 ft 193 kts 289°
2026-05-04 12:33 28.73269 -13.59493 4807 ft 193 kts 289°
2026-05-04 12:33 28.73657 -13.60949 4600 ft 192 kts 289°
2026-05-04 12:33 28.74040 -13.62389 4375 ft 187 kts 290°
2026-05-04 12:33 28.74409 -13.63769 4238 ft 179 kts 290°
2026-05-04 12:34 28.74777 -13.65147 4176 ft 185 kts 290°
2026-05-04 12:34 28.75217 -13.66529 4123 ft 182 kts 307°
2026-05-04 12:34 28.76102 -13.67491 4027 ft 175 kts 326°
2026-05-04 12:34 28.77075 -13.68309 3924 ft 173 kts 327°
2026-05-04 12:35 28.78092 -13.69023 3702 ft 173 kts 344°
2026-05-04 12:35 28.79245 -13.69031 3408 ft 168 kts 15°
2026-05-04 12:35 28.80362 -13.68603 3166 ft 170 kts 22°
2026-05-04 12:35 28.81447 -13.68071 2897 ft 169 kts 24°
2026-05-04 12:36 28.82506 -13.67495 2626 ft 169 kts 26°
2026-05-04 12:36 28.83548 -13.66903 2341 ft 167 kts 26°
2026-05-04 12:36 28.84583 -13.66309 2062 ft 165 kts 28°
2026-05-04 12:36 28.85601 -13.65718 1814 ft 163 kts 28°
2026-05-04 12:37 28.86608 -13.65133 1582 ft 162 kts 28°
2026-05-04 12:37 28.87609 -13.64554 1342 ft 161 kts 29°
2026-05-04 12:37 28.88592 -13.63983 1128 ft 152 kts 30°
2026-05-04 12:37 28.89496 -13.63461 955 ft 143 kts 32°
2026-05-04 12:38 28.90383 -13.62950 784 ft 142 kts 32°
2026-05-04 12:38 28.91252 -13.62423 589 ft 144 kts 32°
2026-05-04 12:38 28.92149 -13.61918 398 ft 142 kts 33°
2026-05-04 12:38 28.93028 -13.61408 208 ft 142 kts 34°
2026-05-04 12:39 28.93902 -13.60897 40 ft 138 kts 33°
2026-05-04 12:39 28.94650 -13.60458 41 ft 99 kts 26°
2026-05-04 12:39 28.95088 -13.60225 51 ft 41 kts 16°
2026-05-04 12:39 28.95273 -13.60210 47 ft 15 kts 355°
2026-05-04 12:40 28.95303 -13.60220 50 ft 2 kts 331°
2026-05-04 12:40 28.95314 -13.60229 52 ft 1 kts 319°
2026-05-04 12:40 28.95321 -13.60239 51 ft 4 kts 300°
2026-05-04 12:40 28.95312 -13.60282 51 ft 8 kts 225°
2026-05-04 12:41 28.95249 -13.60324 52 ft 13 kts 207°
2026-05-04 12:41 28.95154 -13.60379 49 ft 18 kts 208°
2026-05-04 12:41 28.95028 -13.60450 53 ft 23 kts 205°
2026-05-04 12:41 28.94899 -13.60525 53 ft 12 kts 207°
2026-05-04 12:42 28.94883 -13.60613 51 ft 15 kts 295°
2026-05-04 12:42 28.94937 -13.60712 51 ft 11 kts 301°
2026-05-04 12:42 28.94958 -13.60758 53 ft 3 kts 296°
2026-05-04 12:42 28.94963 -13.60769 51 ft 3 kts 296°
2026-05-04 12:43 28.94967 -13.60778 51 ft 1 kts 296°
2026-05-04 12:43 28.94967 -13.60779 52 ft 0 kts 296°